This demonstration page uses our WeatherBlox Daily Observations layout. Learn more.

Left ArrowRight Arrow

39.01783, -85.05884

Hourly Observations for February 10, 2016

Temp ( °F °C ) Dew Point ( °F °C ) Humidity (%) Winds ( mph kmh ) Pressure ( in mb ) Visibility ( mi km ) Precip ( " mm )
12:09 am 00:09 Cloudy with Light Snow 16 -9 10 -12 79 79 W 9 15 30.03 1017 3 5 N/A
12:21 am 00:21 Cloudy with Light Snow 16 -9 10 -12 79 79 W 9 15 30.03 1017 2 3 N/A
12:31 am 00:31 Cloudy with Light Snow 16 -9 12 -11 86 86 W 10 17 30.03 1017 1 2 N/A
12:37 am 00:37 Cloudy with Light Snow 16 -9 10 -12 79 79 W 13 20 30.03 1017 2 3 N/A
12:52 am 00:52 Cloudy with Light Snow 16 -8.9 11 -11.7 80 80 W 9 15 29.96 1014 2 3 N/A
1:10 am 01:10 Cloudy with Light Snow 16 -9 10 -12 79 79 W 10 17 30.00 1016 3 5 N/A
1:20 am 01:20 Cloudy with Light Snow 16 -9 10 -12 79 79 W 13 20 30.00 1016 9 14 N/A
1:48 am 01:48 Cloudy with Light Snow 16 -9 10 -12 79 79 WSW 7 11 30.00 1016 3 4 N/A
1:52 am 01:52 Cloudy with Light Snow 16 -8.9 11 -11.7 80 80 W 9 15 29.95 1014 3 4 N/A
2:10 am 02:10 Cloudy with Light Snow 16 -9 10 -12 79 79 W 12 19 30.00 1016 3 5 N/A
2:52 am 02:52 Mostly Cloudy with Light Snow 15 -9.4 9 -12.8 77 77 W 9 15 29.96 1014 8 13 N/A
3:52 am 03:52 Cloudy with Light Snow 15 -9.4 9 -12.8 77 77 W 10 17 29.96 1015 9 14 N/A
4:52 am 04:52 Cloudy with Light Snow 15 -9.4 9 -12.8 77 77 W 10 17 29.96 1015 9 14 N/A
5:52 am 05:52 Cloudy with Light Snow 15 -9.4 10 -12.2 80 80 W 9 15 29.98 1015 2 3 N/A
6:12 am 06:12 Cloudy with Light Snow 16 -9 10 -12 79 79 W 7 11 30.03 1017 3 4 N/A
6:14 am 06:14 Cloudy with Light Snow 16 -9 10 -12 79 79 W 8 13 30.03 1017 1 2 N/A
6:52 am 06:52 Cloudy with Light Snow 15 -9.4 11 -11.7 84 84 W 12 19 29.99 1016 2 3 0.01 0.25
7:26 am 07:26 Cloudy with Light Snow 16 -9 9 -13 73 73 W 18 30 30.06 1018 2 3 N/A
7:38 am 07:38 Cloudy 16 -9 7 -14 67 67 W 20 31 30.06 1018 7 11 N/A
7:52 am 07:52 Cloudy 15 -9.4 7 -13.9 70 70 W 17 28 30.00 1016 8 13 N/A
8:52 am 08:52 Cloudy 14 -10 7 -13.9 73 73 W 16 26 30.02 1017 7 11 N/A
9:41 am 09:41 Cloudy with Light Snow 16 -9 7 -14 67 67 W 9 15 30.09 1019 6 10 N/A
9:52 am 09:52 Cloudy with Light Snow 15 -9.4 7 -13.9 70 70 W 12 19 30.03 1017 7 11 N/A
10:28 am 10:28 Cloudy with Light Snow 16 -9 9 -13 73 73 W 15 24 30.09 1019 3 5 N/A
10:43 am 10:43 Cloudy with Light Snow 16 -9 9 -13 73 73 W 14 22 30.09 1019 2 3 N/A
10:52 am 10:52 Cloudy with Light Snow 16 -8.9 9 -12.8 74 74 W 15 24 30.05 1018 2 3 N/A
11:52 am 11:52 Cloudy 17 -8.3 8 -13.3 68 68 WNW 18 30 30.06 1018 9 14 N/A
12:18 pm 12:18 Cloudy 18 -8 9 -13 68 68 W 15 24 30.12 1020 10 16 N/A
12:52 pm 12:52 Cloudy with Light Snow 17 -8.3 7 -13.9 64 64 W 14 22 30.06 1018 7 11 N/A
1:52 pm 13:52 Cloudy 17 -8.3 7 -13.9 64 64 W 17 28 30.06 1018 8 13 N/A
2:21 pm 14:21 Cloudy with Light Snow 18 -8 7 -14 62 62 WSW 10 17 30.12 1020 3 4 N/A
2:52 pm 14:52 Cloudy with Haze 17 -8.3 8 -13.3 68 68 WSW 9 15 30.05 1018 3 4 N/A
3:52 pm 15:52 Cloudy 17 -8.3 5 -15 59 59 W 14 22 30.06 1018 7 11 N/A
4:52 pm 16:52 Cloudy 17 -8.3 4 -15.6 56 56 W 13 20 30.07 1018 10 16 N/A
5:52 pm 17:52 Cloudy 17 -8.3 5 -15 59 59 W 10 17 30.09 1019 10 16 N/A
6:52 pm 18:52 Cloudy 17 -8.3 5 -15 59 59 WSW 6 9 30.11 1020 10 16 N/A
7:52 pm 19:52 Mostly Cloudy 17 -8.3 6 -14.4 62 62 NW 10 17 30.12 1020 10 16 N/A
8:52 pm 20:52 Cloudy 16 -8.9 6 -14.4 65 65 WNW 8 13 30.15 1021 10 16 N/A
9:52 pm 21:52 Partly Cloudy 13 -10.6 4 -15.6 67 67 WNW 5 7 30.16 1021 10 16 N/A
10:52 pm 22:52 Mostly Cloudy 12 -11.1 4 -15.6 70 70 N N/A 30.17 1022 10 16 N/A
11:52 pm 23:52 Cloudy 12 -11.1 4 -15.6 70 70 SW 5 7 30.18 1022 10 16 N/A

Powered by AerisWeather